Location: Joplin, MO
(37.0842°N, 94.5133°W)
Time: 16:12:16
(UTC+02:00)

Transit 2A - Pass Details

Date: 08 April 2023
Orbit: 591 x 964 km, 66.7° (Epoch: 03 June)

Event Time Altitude Azimuth Distance (km) Brightness Sun altitude
Exits shadow 08:57:03 11° 49° (NE) 2,472 9.0 -44.9°
Drops below altitude 10° 08:57:15 10° 48° (NE) 2,539 9.1 -44.9°
Sets 09:00:08 0° 38° (NE) 3,535 10.1 -44.8°
